sat.trackr.live / text

‹ back to catalog

STARLINK-30426

NORAD 57848 · 2023-141J

PAYLOAD ACTIVE UNKNOWN

§ Identity

Operator
Country
US
Launch date
2023-09-12
Launch site
AFWTR
Launch vehicle
Mass (kg)
RCS (m²)

Purposes: comms

External: N2YO · Heavens-Above · Gunter

§ Orbital elements

Epoch: 2026-05-25T02:31:10.547616Z

Period
94.11 min
Inclination
53.1608°
Eccentricity
0.0001360
Mean motion
15.30194331 rev/d
Perigee alt
474.3 km
Apogee alt
476.2 km
Semi-major
6,853.4 km
B*
5.4345e-5
RAAN
289.2129°
Arg perigee
90.7042°
Mean anomaly
269.4114°
Rev number
15,202

§ Raw data

STARLINK-304261 57848U 23141J   26145.10498319  .00001250  00000+0  54345-4 0  99982 57848  53.1608 289.2129 0001360  90.7042 269.4114 15.30194331152029

JSON: /api/v1/satellites/57848 · /tle

For live sub-satellite position, see the globe view (requires WebGL).

§ Visibility from observer

Set your observer location to see the next 7 days of passes ≥ 10°. The values pass through the URL so the page stays shareable.

No JS? Fill the form by hand. The geolocation button needs JavaScript.